• In Hungary
  • List of Countries
  • For 7 days
  • Water Temperature
  • Satellite Maps
  • Weather Map
  • News
  • Weather Widgets
  • user-avatar
    Login

    Hourly Weather Jambol

    Today, 22 October, Sunday

    Time Temperature Precipitation Wind Pressure Humidity
    00:00 +19°C° 0 mm 1 mps 749 mmHg 48%
    01:00 +19°C° 0 mm 1 mps 749 mmHg 50%
    02:00 +18°C° 0 mm 1 mps 749 mmHg 51%
    03:00 +18°C° 0 mm 1 mps 749 mmHg 53%
    04:00 +18°C° 0 mm 1 mps 749 mmHg 55%
    05:00 +16°C° 0 mm 1 mps 749 mmHg 57%
    06:00 +18°C° 0 mm 1 mps 749 mmHg 57%
    07:00 +18°C° 0 mm 1 mps 749 mmHg 56%
    08:00 +17°C° 0 mm 2 mps 749 mmHg 56%
    09:00 +19°C° 0 mm 2 mps 750 mmHg 51%
    10:00 +21°C° 0 mm 2 mps 750 mmHg 46%
    11:00 +22°C° 0 mm 3 mps 750 mmHg 40%
    12:00 +24°C° 0 mm 2 mps 750 mmHg 39%
    13:00 +24°C° 0 mm 2 mps 750 mmHg 37%
    14:00 +25°C° 0 mm 1 mps 749 mmHg 35%
    15:00 +24°C° 0 mm 2 mps 749 mmHg 39%
    16:00 +23°C° 0 mm 2 mps 749 mmHg 43%
    17:00 +21°C° 0 mm 3 mps 749 mmHg 47%
    18:00 +19°C° 0 mm 3 mps 749 mmHg 54%
    19:00 +18°C° 0 mm 3 mps 749 mmHg 61%
    20:00 +17°C° 0 mm 3 mps 749 mmHg 68%
    21:00 +16°C° 0 mm 3 mps 749 mmHg 71%
    22:00 +16°C° 0 mm 3 mps 749 mmHg 74%
    23:00 +14°C° 0 mm 3 mps 749 mmHg 78%

    Tomorrow, 23 October, Monday

    Time Temperature Precipitation Wind Pressure Humidity
    00:00 +14°C° 0 mm 3 mps 749 mmHg 80%
    01:00 +14°C° 0 mm 3 mps 749 mmHg 82%
    02:00 +14°C° 0 mm 2 mps 748 mmHg 85%
    03:00 +14°C° 0 mm 2 mps 748 mmHg 87%
    04:00 +14°C° 0 mm 2 mps 747 mmHg 89%
    05:00 +14°C° 0 mm 2 mps 747 mmHg 91%
    06:00 +13°C° 0 mm 3 mps 747 mmHg 89%
    07:00 +14°C° 0 mm 3 mps 746 mmHg 88%
    08:00 +14°C° 0 mm 3 mps 746 mmHg 86%
    09:00 +17°C° 0 mm 4 mps 746 mmHg 79%
    10:00 +18°C° 0 mm 4 mps 745 mmHg 72%
    11:00 +20°C° 0 mm 4 mps 745 mmHg 64%
    12:00 +21°C° 0 mm 4 mps 744 mmHg 60%
    13:00 +22°C° 0 mm 5 mps 744 mmHg 55%
    14:00 +23°C° 0 mm 5 mps 743 mmHg 51%
    15:00 +22°C° 0 mm 4 mps 743 mmHg 53%
    16:00 +21°C° 0 mm 4 mps 742 mmHg 55%
    17:00 +20°C° 0 mm 3 mps 742 mmHg 57%
    18:00 +20°C° 0.1 mm 3 mps 742 mmHg 62%
    19:00 +19°C° 0.1 mm 3 mps 742 mmHg 67%
    20:00 +18°C° 0.1 mm 3 mps 742 mmHg 71%
    21:00 +18°C° 0.3 mm 3 mps 742 mmHg 73%
    22:00 +17°C° 0.3 mm 3 mps 741 mmHg 75%
    23:00 +17°C° 0.3 mm 3 mps 741 mmHg 77%

    Day after tomorrow, 24 October, Tuesday

    Time Temperature Precipitation Wind Pressure Humidity
    00:00 +17°C° 0.3 mm 3 mps 741 mmHg 78%
    01:00 +17°C° 0.3 mm 3 mps 741 mmHg 79%
    02:00 +17°C° 0.3 mm 3 mps 741 mmHg 79%
    03:00 +16°C° 0.6 mm 3 mps 741 mmHg 82%
    04:00 +16°C° 0.6 mm 3 mps 740 mmHg 84%
    05:00 +16°C° 0.6 mm 3 mps 740 mmHg 86%
    06:00 +16°C° 1.4 mm 3 mps 741 mmHg 86%
    07:00 +16°C° 1.4 mm 3 mps 741 mmHg 85%
    08:00 +17°C° 1.4 mm 4 mps 741 mmHg 84%
    09:00 +18°C° 0.4 mm 4 mps 741 mmHg 78%
    10:00 +19°C° 0.4 mm 4 mps 742 mmHg 72%
    11:00 +20°C° 0.4 mm 5 mps 742 mmHg 65%
    12:00 +20°C° 0.3 mm 5 mps 742 mmHg 65%
    13:00 +20°C° 0.3 mm 5 mps 742 mmHg 64%
    14:00 +20°C° 0.3 mm 5 mps 742 mmHg 63%
    15:00 +19°C° 0.9 mm 5 mps 743 mmHg 68%
    16:00 +17°C° 0.9 mm 5 mps 743 mmHg 74%
    17:00 +17°C° 0.9 mm 5 mps 743 mmHg 79%
    18:00 +16°C° 0.4 mm 5 mps 744 mmHg 81%
    19:00 +16°C° 0.4 mm 5 mps 744 mmHg 83%
    20:00 +16°C° 0.4 mm 5 mps 745 mmHg 84%
    21:00 +16°C° 0.5 mm 6 mps 745 mmHg 84%
    22:00 +16°C° 0.5 mm 6 mps 746 mmHg 84%
    23:00 +16°C° 0.5 mm 7 mps 746 mmHg 83%

    25 October, Wednesday

    Time Temperature Precipitation Wind Pressure Humidity
    00:00 +16°C° 0.1 mm 7 mps 747 mmHg 83%
    01:00 +15°C° 0.1 mm 7 mps 747 mmHg 83%
    02:00 +15°C° 0.1 mm 7 mps 747 mmHg 83%
    03:00 +14°C° 0.5 mm 7 mps 748 mmHg 82%
    04:00 +12°C° 0.5 mm 8 mps 748 mmHg 81%
    05:00 +12°C° 0.5 mm 8 mps 749 mmHg 79%
    06:00 +11°C° 0.5 mm 7 mps 750 mmHg 78%
    07:00 +10°C° 0.5 mm 7 mps 750 mmHg 77%
    08:00 +10°C° 0.5 mm 7 mps 751 mmHg 76%
    09:00 +10°C° 0.3 mm 7 mps 752 mmHg 74%
    10:00 +10°C° 0.3 mm 7 mps 752 mmHg 72%
    11:00 +10°C° 0.3 mm 7 mps 753 mmHg 70%
    12:00 +10°C° 0.3 mm 6 mps 753 mmHg 69%
    13:00 +10°C° 0.3 mm 6 mps 754 mmHg 68%
    14:00 +9°C° 0.3 mm 6 mps 754 mmHg 68%
    15:00 +9°C° 0.2 mm 5 mps 754 mmHg 68%
    16:00 +10°C° 0.2 mm 5 mps 755 mmHg 68%
    17:00 +10°C° 0.2 mm 5 mps 755 mmHg 68%
    18:00 +10°C° 0.1 mm 5 mps 756 mmHg 68%
    19:00 +10°C° 0.1 mm 5 mps 756 mmHg 67%
    20:00 +10°C° 0.1 mm 5 mps 757 mmHg 66%
    21:00 +11°C° 0 mm 4 mps 757 mmHg 66%
    22:00 +10°C° 0 mm 4 mps 757 mmHg 67%
    23:00 +10°C° 0 mm 4 mps 757 mmHg 67%

    26 October, Thursday

    Time Temperature Precipitation Wind Pressure Humidity
    00:00 +10°C° 0 mm 4 mps 757 mmHg 69%
    01:00 +9°C° 0 mm 3 mps 757 mmHg 70%
    02:00 +9°C° 0 mm 3 mps 757 mmHg 72%
    03:00 +8°C° 0 mm 3 mps 757 mmHg 72%
    04:00 +8°C° 0 mm 3 mps 757 mmHg 73%
    05:00 +8°C° 0 mm 2 mps 758 mmHg 74%
    06:00 +8°C° 0 mm 2 mps 758 mmHg 72%
    07:00 +9°C° 0 mm 2 mps 758 mmHg 70%
    08:00 +9°C° 0 mm 2 mps 758 mmHg 68%
    09:00 +12°C° 0 mm 2 mps 758 mmHg 63%
    10:00 +14°C° 0 mm 2 mps 758 mmHg 58%
    11:00 +16°C° 0 mm 2 mps 758 mmHg 52%
    12:00 +16°C° 0 mm 2 mps 758 mmHg 51%
    13:00 +17°C° 0 mm 2 mps 757 mmHg 50%
    14:00 +18°C° 0 mm 2 mps 757 mmHg 48%
    15:00 +17°C° 0 mm 2 mps 756 mmHg 52%
    16:00 +16°C° 0 mm 1 mps 756 mmHg 56%
    17:00 +16°C° 0 mm 1 mps 756 mmHg 60%
    18:00 +15°C° 0 mm 1 mps 756 mmHg 63%
    19:00 +14°C° 0 mm 1 mps 756 mmHg 66%
    20:00 +13°C° 0 mm 1 mps 756 mmHg 69%
    21:00 +13°C° 0 mm 1 mps 756 mmHg 69%
    22:00 +13°C° 0 mm 1 mps 756 mmHg 70%
    23:00 +12°C° 0 mm 1 mps 756 mmHg 71%

    27 October, Friday

    Time Temperature Precipitation Wind Pressure Humidity
    00:00 +12°C° 0 mm 1 mps 756 mmHg 71%
    01:00 +12°C° 0 mm 1 mps 756 mmHg 72%
    02:00 +12°C° 0 mm 1 mps 756 mmHg 73%
    03:00 +11°C° 0 mm 1 mps 756 mmHg 73%
    04:00 +11°C° 0 mm 1 mps 755 mmHg 74%
    05:00 +11°C° 0 mm 1 mps 755 mmHg 75%
    06:00 +12°C° 0 mm 1 mps 755 mmHg 73%
    07:00 +12°C° 0 mm 1 mps 755 mmHg 72%
    08:00 +13°C° 0 mm 1 mps 755 mmHg 70%
    09:00 +14°C° 0 mm 1 mps 755 mmHg 64%
    10:00 +16°C° 0 mm 2 mps 754 mmHg 57%
    11:00 +18°C° 0 mm 2 mps 754 mmHg 51%
    12:00 +19°C° 0 mm 2 mps 753 mmHg 48%
    13:00 +19°C° 0 mm 3 mps 753 mmHg 46%
    14:00 +20°C° 0 mm 3 mps 752 mmHg 43%
    15:00 +19°C° 0 mm 3 mps 751 mmHg 47%
    16:00 +18°C° 0 mm 2 mps 751 mmHg 51%
    17:00 +17°C° 0 mm 2 mps 750 mmHg 55%
    18:00 +16°C° 0 mm 2 mps 750 mmHg 58%
    19:00 +16°C° 0 mm 2 mps 749 mmHg 60%
    20:00 +15°C° 0 mm 2 mps 749 mmHg 63%
    21:00 +14°C° 0 mm 2 mps 749 mmHg 65%
    22:00 +14°C° 0 mm 2 mps 748 mmHg 68%
    23:00 +14°C° 0 mm 2 mps 748 mmHg 70%
    Show more